OK0BPL-5 Weather Reports


Display with metric or nautical units.
time (UTC)temp
F
wind
direction
speed
MPH
gust
MPH
rain 1hr
in
rain 24hr
in
rain mn
in
humidity
%
barometer
mb
20260903092638 67 270 8.0 18.0 0.00 0.00 0.00 48 1016.5
20260903091137 67 222 15.0 18.0 0.00 0.00 0.00 49 1016.5
20260903085637 67 270 8.0 18.0 0.00 0.00 0.00 51 1016.5
20260903084138 67 222 8.0 16.0 0.00 0.00 0.00 52 1016.4
20260903082638 66 222 12.0 19.0 0.00 0.00 0.00 51 1017.1
20260903081138 65 222 12.0 18.0 0.00 0.00 0.00 54 1016.8
20260903075637 64 222 10.0 19.0 0.00 0.00 0.00 60 1017.3
20260903074138 64 270 11.0 19.0 0.00 0.00 0.00 61 1017.3
20260903072637 63 222 12.0 19.0 0.00 0.00 0.00 62 1017.4
20260903071137 62 270 8.0 15.0 0.00 0.00 0.00 64 1017.5
20260903065638 61 222 6.0 12.0 0.00 0.00 0.00
20260903064138 60 222 5.0 10.0 0.00 0.00 0.00 74 1017.8
20260903062638 60 222 4.0 9.0 0.00 0.00 0.00 76 1017.8
20260903061138 60 222 4.0 8.0 0.00 0.00 0.00 76 1017.7
20260903055637 60 222 5.0 11.0 0.00 0.00 0.00 74 1017.7
20260903054139 59 222 6.0 10.0 0.00 0.00 0.00 76 1017.5
20260903054137 59 222 6.0 10.0 0.00 0.00 0.00 76 1017.5
20260903052637 59 222 6.0 17.0 0.00 0.00 0.00 76 1017.6
20260903051137 59 222 4.0 14.0 0.00 0.00 0.00 78 1017.4
20260903045638 59 222 6.0 12.0 0.00 0.00 0.00 78 1017.5
20260903044137 59 222 8.0 16.0 0.00 0.00 0.00 78 1017.3
20260903042637 59 222 7.0 17.0 0.00 0.00 0.00 78 1017.4
20260903041137 60 270 7.0 14.0 0.00 0.00 0.00 78 1017.3
20260903035638 60 222 7.0 17.0 0.00 0.00 0.00 76 1017.2
20260903034137 60 270 11.0 18.0 0.00 0.00 0.00 76 1017.1
20260903032638 60 222 8.0 13.0 0.00 0.00 0.00 74 1017.0
20260903031137 61 222 7.0 10.0 0.00 0.00 0.00 72 1017.0
20260903025638 61 222 4.0 9.0 0.00 0.00 0.00 72 1017.0
20260903024138 61 222 2.0 6.0 0.00 0.00 0.00 72 1016.9
20260903022637 61 222 3.0 6.0 0.00 0.00 0.00 73 1017.0
20260903021137 61 180 4.0 8.0 0.00 0.00 0.00 74 1016.9
20260903015637 61 180 5.0 8.0 0.00 0.00 0.00 74 1016.9
20260903014137 61 222 5.0 15.0 0.00 0.00 0.00 74 1016.9
20260903012637 61 222 5.0 7.0 0.00 0.00 0.00 74 1016.9
20260903011138 62 222 4.0 15.0 0.00 0.00 0.00 73 1016.9
20260903005638 62 222 3.0 8.0 0.00 0.00 0.00 73 1016.9
20260903004137 62 222 4.0 15.0 0.00 0.00 0.00 73 1017.0
20260903002639 61 222 6.0 16.0 0.00 0.00 0.00 73 1016.9
20260903002637 61 222 6.0 16.0 0.00 0.00 0.00 73 1016.9
20260903001137 62 222 6.0 8.0 0.00 0.00 0.00 73 1016.9
20260902235637 62 222 5.0 10.0 0.00 0.00 0.00 73 1016.9
20260902234137 62 222 4.0 6.0 0.00 0.00 0.00 73 1017.0
20260902232638 63 222 5.0 7.0 0.00 0.00 0.00 72 1016.9
20260902231137 63 222 3.0 5.0 0.00 0.00 0.00 70 1016.7
20260902225637 63 222 4.0 17.0 0.00 0.00 0.00 68 1016.7
20260902224137 64 222 4.0 17.0 0.00 0.00 0.00 66 1016.8
20260902222637 64 222 6.0 16.0 0.00 0.00 0.00 64 1016.9
20260902221137 64 222 3.0 16.0 0.00 0.00 0.00 62 1016.9
20260902215637 65 270 3.0 10.0 0.00 0.00 0.00 60 1016.8
20260902214137 65 222 2.0 10.0 0.00 0.00 0.00 58 1016.8
20260902212638 65 270 3.0 11.0 0.00 0.00 0.00 60 1016.7
20260902211138 64 270 0.0 4.0 0.00 0.00 0.00 63 1016.6
20260902205638 65 270 0.0 2.0 0.00 0.00 0.00 60 1016.5
20260902204138 66 270 2.0 15.0 0.00 0.00 0.00 56 1016.3
20260902202637 67 270 3.0 8.0 0.00 0.00 0.00 54 1016.1
20260902201138 67 222 1.0 2.0 0.00 0.00 0.00 54 1016.1
20260902195638 65 0 1.0 3.0 0.00 0.00 0.00 58 1016.2
20260902194137 66 315 0.0 1.0 0.00 0.00 0.00 58 1016.3
20260902192638 64 0 3.0 8.0 0.00 0.00 0.00 65 1016.3
20260902191138 65 180 2.0 8.0 0.00 0.00 0.00 66 1016.2
20260902185638 67 222 7.0 16.0 0.00 0.00 0.00 58 1015.6
20260902184137 69 222 4.0 15.0 0.00 0.00 0.00 50 1015.6
20260902182637 69 222 5.0 14.0 0.00 0.00 0.00 50 1015.4
20260902181137 69 222 6.0 10.0 0.00 0.00 0.00 50 1015.4
20260902175639 696 270 5.0 0.0 0.00 0.00 0.00 49 1015.1
20260902175637 69 270 5.0 8.0 0.00 0.00 0.00 49 1015.1
20260902174137 69 222 6.0 9.0 0.00 0.00 0.00 49 1015.2
20260902172637 70 222 5.0 11.0 0.00 0.00 0.00 48 1015.0
20260902171137 70 222 6.0 18.0 0.00 0.00 0.00 47 1014.8
20260902165637 71 222 6.0 11.0 0.00 0.00 0.00 46 1014.9
20260902164137 71 270 6.0 11.0 0.00 0.00 0.00 46 1014.7
20260902162637 72 222 7.0 18.0 0.00 0.00 0.00 45 1014.8
20260902161137 71 270 4.0 14.0 0.00 0.00 0.00 45 1014.9
20260902155638 71 222 6.0 11.0 0.00 0.00 0.00 44 1014.7
20260902154137 72 180 5.0 11.0 0.00 0.00 0.00 43 1014.6
20260902152637 72 222 6.0 15.0 0.00 0.00 0.00 43 1014.6
20260902151137 74 270 6.0 15.0 0.00 0.00 0.00 39 1014.1
20260902145637 75 180 4.0 12.0 0.00 0.00 0.00 39 1014.2
20260902144137 75 270 8.0 18.0 0.00 0.00 0.00 37 1014.1
20260902142637 77 270 4.0 8.0 0.00 0.00 0.00 35 1013.9
20260902141138 77 222 3.0 7.0 0.00 0.00 0.00 35 1014.1
20260902135637 76 270 5.0 17.0 0.00 0.00 0.00 38 1014.2
20260902134137 75 222 5.0 12.0 0.00 0.00 0.00 38 1014.6
20260902132637 74 270 7.0 17.0 0.00 0.00 0.00 39 1014.7
20260902131137 75 222 4.0 15.0 0.00 0.00 0.00 40 1014.9
20260902125638 75 222 5.0 10.0 0.00 0.00 0.00 39 1015.2
20260902124137 72 180 5.0 15.0 0.00 0.00 0.00 44 1015.7
20260902122637 71 222 5.0 16.0 0.00 0.00 0.00 45 1015.8
20260902121141 71 180 5.0 13.0 0.00 0.00 0.00 45 1016.0
20260902121137 71 180 5.0 13.0 0.00 0.00 0.00 45 1016.0
20260902115638 70 222 6.0 13.0 0.00 0.00 0.02 43
20260902115636 70 222 6.0 13.0 0.00 0.00 0.00 43 1016.0
20260902114137 72 270 6.0 15.0 0.00 0.00 0.00 43 1015.7
20260902112637 73 270 4.0 15.0 0.00 0.00 0.00 43 1015.4
20260902111138 73 222 4.0 13.0 0.00 0.00 0.00 42 1015.7
20260902105637 74 270 4.0 14.0 0.00 0.00 0.00 43 1015.9
20260902104138 72 222 3.0 8.0 0.00 0.00 0.00 44 1016.3
20260902104136 72 222 3.0 8.0 0.00 0.00 0.00 44 1016.3
20260902102637 70 270 5.0 14.0 0.00 0.00 0.00 46 1016.2
20260902101136 69 222 4.0 12.0 0.00 0.00 0.00 50 1016.6
20260902095637 72 270 5.0 15.0 0.00 0.00 0.00 44 1016.3
20260902094137 74 180 1.0 12.0 0.00 0.00 0.00 41 1015.9